Location: Demmingen
(48.6757°N, 10.4375°E)
Time: 09:00:25
(UTC+00:00)

SL-27 R/B - Pass Details

Date: 23 May 2024
Orbit: 329 x 353 km, 74.7° (Epoch: 15 June)

Event Time Altitude Azimuth Distance (km) Brightness Sun altitude
Exits shadow 02:36:03 10° 237° (WSW) 1,247 4.0 -7.5°
Maximum altitude 02:38:25 27° 298° (WNW) 684 3.2 -7.2°
Drops below altitude 10° 02:40:50 10° 360° (N) 1,270 5.3 -6.9°
Sets 02:43:05 0° 13° (NNE) 2,162 6.9 -6.6°
